Location: Makanda
(37.6176°N, 89.2090°W)
Time: 04:41:34
(UTC+00:00)

Daily predictions for brighter satellites

Satellite Brightness Start Highest point End
(mag) Time Altitude Azimuth Time Altitude Azimuth Time Altitude Azimuth
COSMO-SKYMED 1 3.3 00:17:09 10° N 00:21:27 61° WNW 00:25:43 10° SSW
FengYun 1-2 T 4.3 00:18:15 10° SSE 00:23:53 89° ENE 00:29:35 10° NNW
Meteor 1-4 Rocket 4.5 00:24:13 10° NE 00:25:34 12° ENE 00:26:57 10° E
Cosmos 2184 Rocket 4.0 00:19:42 10° N 00:25:59 81° E 00:32:18 10° S
Cosmos 2219 Rocket 2.2 00:21:13 10° NNW 00:26:50 76° ENE 00:32:26 10° SSE
YAOGAN 6 2.7 00:24:17 10° SSE 00:27:56 88° WSW 00:31:39 10° NNW
SL-16 R/B 4.1 00:26:29 10° NNE 00:28:49 12° NE 00:31:08 10° ENE
CZ-2D R/B 3.6 00:28:19 10° SE 00:31:54 42° ENE 00:35:30 10° N
BREEZE-M DEB (TANK) 2.0 00:32:31 10° WNW 00:34:40 62° SW 00:37:17 10° SE
CZ-4 R/B 2.0 00:31:37 10° S 00:35:26 58° W 00:39:21 10° NNW
NOAA 11 4.4 00:30:55 10° SE 00:36:10 49° ENE 00:41:27 10° N
Cosmos 1455 Rocket 4.3 00:33:13 10° SE 00:36:27 20° E 00:39:43 10° NE
Nadezhda 1 Rocket 4.0 00:35:51 10° S 00:41:55 90° NNE 00:48:02 10° N
COSMOS 2428 3.1 00:42:35 10° NNW 00:48:14 70° WSW 00:53:51 10° SSE
Cosmos 1371 Rocket 4.0 00:48:53 10° SSW 00:54:11 85° ESE 00:59:34 10° NNE
Cosmos 2227 Rocket 2.2 00:48:54 10° S 00:54:26 61° ESE 01:00:02 10° NNE
Cosmos 405 Rocket 2.8 00:51:08 10° SSE 00:54:38 44° E 00:58:11 10° NNE
Lacrosse 5 rocket 1.6 00:51:18 10° SW 00:54:51 58° NW 00:58:31 10° NE
Lacrosse 5 3.2 00:52:12 10° SSE 00:55:36 18° ESE 00:55:56 18° ESE
ATLAS 2AS CENTAUR R/B 3.0 00:49:16 10° NW 00:56:48 75° WSW 01:03:38 10° SSE
Cosmos 2219 3.6 00:54:57 10° SSW 01:00:40 68° WNW 01:06:24 10° NNE
Cosmos 1939 Rocket 2.7 00:57:36 10° SSE 01:01:27 88° ENE 01:05:19 10° NNW
Okean 1 Rocket 4.1 00:57:40 10° SSW 01:01:51 47° W 01:06:04 10° N
FREGAT/IRIS 2.9 01:04:11 36° E 01:04:25 37° ENE 01:07:04 10° N
Cosmos 2297 Rocket 2.1 00:58:55 10° SSW 01:04:33 80° ESE 01:10:14 10° NNE
Cosmos 1452 Rocket 4.2 01:00:34 10° SSE 01:05:02 29° E 01:09:32 10° NE
Cosmos 1437 Rocket 4.2 01:07:58 10° NNE 01:10:02 20° NE 01:10:02 20° NE
HJ-1C 3.3 01:08:04 10° SSE 01:11:26 88° ENE 01:14:50 10° N
Cosmos 389 Rocket 2.3 01:15:33 10° N 01:18:59 87° W 01:21:14 20° S
MONITOR-E 4.3 01:19:36 25° S 01:20:59 63° W 01:23:46 10° NNW
MOS 1 4.2 01:16:33 10° SSE 01:22:14 80° ENE 01:27:57 10° NNW
H-2A R/B 2.6 01:22:56 33° E 01:23:41 35° ENE 01:28:13 10° N
Cosmos 1190 Rocket 3.9 01:20:09 10° NNW 01:25:28 84° ENE 01:29:12 20° SSE
In-Cosmos 22 4.0 01:20:36 10° N 01:26:03 81° E 01:31:36 10° S
Cosmos 1805 3.9 01:27:40 36° NE 01:27:40 36° NE 01:30:25 10° NNE
Cosmos 614 Rocket 4.0 01:24:40 10° NNW 01:29:54 81° WSW 01:33:48 18° SSE
SAR-Lupe-2 4.2 01:26:58 10° N 01:30:28 54° WNW 01:33:55 10° SSW
Resurs 01 Rocket 3.4 01:33:07 18° NE 01:33:07 18° NE 01:34:53 10° NNE
Meteor 2-17 Rocket 4.3 01:25:34 10° N 01:31:39 77° E 01:37:24 11° S
Cosmos 2181 Rocket 4.0 01:29:31 10° S 01:35:46 88° W 01:42:08 10° N
Ariane Rocket 4.1 01:31:24 10° S 01:36:12 44° W 01:41:04 10° NNW
SJ-11-01 4.2 01:33:28 24° SSE 01:36:24 87° ENE 01:41:11 10° NNW
ISS -1.0 01:34:29 10° WNW 01:36:39 16° NNW 01:38:33 11° NNE
Cosmos 1892 Rocket 3.7 01:35:29 10° NNW 01:39:54 72° W 01:42:44 21° S
CZ-2C R/B 3.9 01:36:01 10° N 01:40:26 67° WNW 01:44:49 10° SSW
Cosmos 2237 Rocket 2.5 01:34:49 10° NNW 01:40:29 68° WSW 01:44:33 19° S
ERBS 4.2 01:37:55 10° NNW 01:39:41 21° N 01:39:41 21° N
Cosmos 2333 Rocket 4.4 01:36:52 10° NW 01:41:17 24° WSW 01:45:43 10° SSW
Cosmos 2341 Rocket 4.2 01:35:56 10° NNW 01:42:07 70° W 01:48:15 10° S
USA 186 2.1 01:43:57 68° NW 01:43:57 68° NW 01:47:04 10° NNW
Cosmos 1980 4.4 01:45:12 10° NNW 01:50:39 50° WSW 01:54:50 17° S
Meteor 1-24 Rocket 3.8 01:45:15 10° N 01:51:05 62° E 01:52:08 53° ESE
Cosmos 407 Rocket 4.4 01:48:15 10° NNW 01:53:07 45° WSW 01:56:54 16° S
Cosmos 864 Rocket 4.4 01:47:31 10° N 01:53:47 75° E 01:56:11 40° SSE
Cosmos 2366 rocket 3.9 01:47:42 10° N 01:54:05 79° E 01:56:55 36° SSE
Cosmos 1420 Rocket 4.1 01:50:02 10° SSW 01:55:19 74° WNW 02:00:39 10° NNE
Cosmos 2218 Rocket 3.9 01:48:58 10° N 01:55:21 87° E 01:58:36 31° S
DELTA 2 R/B (1) 3.6 01:50:33 10° W 01:56:10 72° N 01:57:14 57° ENE
Meteor 1-4 Rocket 4.2 01:57:38 10° NNW 02:00:44 30° W 02:01:24 28° WSW
SL-8 Rocket 4.2 01:55:59 10° NNW 02:02:08 69° W 02:06:40 19° S
ADEOS Rocket 3.5 01:55:48 10° NNE 02:03:25 86° ESE 02:11:13 10° SSW
Cosmos 1140 Rocket 4.2 02:03:22 10° NNW 02:08:21 51° WSW 02:09:59 36° SSW
SJ-6B 3.8 02:09:03 46° WSW 02:09:11 46° W 02:13:08 10° NNW
SL-16 R/B 2.1 02:08:04 10° NNW 02:13:40 83° NE 02:13:40 83° NE
GEOS 3 Rocket 3.6 02:14:36 68° SW 02:14:47 69° WSW 02:19:53 10° NW
Cosmos 1954 Rocket 4.3 02:11:36 10° NNW 02:16:43 59° WSW 02:17:11 56° SW
ARGOS 3.4 02:25:22 63° WSW 02:25:32 63° WSW 02:30:54 10° NNW
Lacrosse 5 3.6 02:33:03 10° SW 02:35:15 26° WSW 02:35:15 26° WSW
CZ-2C R/B 3.9 02:40:11 49° NNW 02:40:11 49° NNW 02:44:13 10° NNW
H-2A R/B 4.0 03:03:34 23° W 03:03:34 23° W 03:07:08 10° NW
Resurs 01 Rocket 4.4 03:10:42 16° NW 03:10:42 16° NW 03:11:47 10° NNW
ATLAS 3B R/B 4.2 07:59:06 30° NNE 07:59:06 30° NNE 08:02:11 10° NNE
Cosmos 2369 Rocket 4.4 08:10:36 19° NNE 08:10:36 19° NNE 08:12:11 10° NNE
CENTAUR R/B 3.7 08:35:15 35° N 08:35:15 35° N 08:39:30 10° NNE
Cosmos 1943 Rocket 4.3 08:40:14 18° N 08:40:14 18° N 08:41:49 10° N
BREEZE-M DEB (TANK) 4.4 08:41:32 38° ENE 08:41:32 38° ENE 08:49:00 10° ESE
Cosmos 2344 4.4 08:54:51 36° NW 08:54:51 36° NW 09:01:46 10° NNE
Cosmos 1092 Rocket 4.4 09:02:01 52° N 09:02:01 52° N 09:06:34 10° N
ADEOS II 3.7 08:58:01 10° N 09:00:15 25° N 09:00:15 25° N
Atlas Centaur 2 4.1 09:10:37 22° SSE 09:10:37 22° SSE 09:13:45 10° SE
Meteor 1-10 Rocket 4.4 09:15:14 66° NNW 09:15:14 66° NNW 09:20:22 10° N
ARIANE 5 R/B 4.3 09:10:40 10° N 09:12:28 21° NNW 09:12:28 21° NNW
Cosmos 2242 Rocket 4.4 09:20:57 51° NE 09:20:57 51° NE 09:24:38 10° NNE
Meteor 1-11 Rocket 4.0 09:19:19 10° N 09:24:50 65° E 09:30:17 10° SSE
Cosmos 1627 Rocket 4.4 09:26:54 68° W 09:26:54 68° W 09:33:15 10° N
Lacrosse 5 2.7 09:33:18 21° NNW 09:36:27 47° NE 09:41:18 10° ESE
Cosmos 1346 Rocket 3.2 09:34:57 10° N 09:39:03 63° E 09:39:07 63° E
ADEOS 3.6 09:34:54 10° NNE 09:40:09 80° ESE 09:41:51 44° S
PSLV R/B 3.6 09:37:49 10° NNE 09:42:11 74° ESE 09:42:34 68° SSE
Cosmos 1908 Rocket 4.2 09:37:55 10° N 09:42:11 53° E 09:46:26 10° SSE
Meteor 1-5 Rocket 4.0 09:38:34 10° NNW 09:44:07 74° W 09:49:48 10° S
CZ-2C R/B 4.2 09:39:44 10° NE 09:44:09 30° E 09:48:37 10° SSE
Intercosmos 24 Rocket 4.4 09:40:01 10° N 09:44:36 80° ENE 09:44:36 80° ENE
Cosmos 773 Rocket 4.3 09:45:47 47° NW 09:45:47 47° NW 09:50:13 10° N
ATLAS 3B R/B 4.1 09:46:23 19° NW 09:47:05 19° NW 09:51:43 10° N
Cosmos 1536 2.9 09:44:46 10° N 09:48:45 74° E 09:49:48 47° SSE
Cosmos 1553 Rocket 3.9 09:42:41 10° N 09:48:56 86° E 09:55:03 10° S
Cosmos 2369 Rocket 4.4 09:52:24 11° NW 09:52:24 11° NW 09:53:09 10° NNW
Cosmos 2026 Rocket 4.3 09:54:07 42° W 09:54:36 43° WNW 10:00:38 10° N
Spot 2 4.3 09:50:50 10° N 09:54:40 51° NW 09:54:40 51° NW
Shenzhou-11 Module 3.6 09:57:15 31° ENE 09:57:15 31° ENE 09:58:51 10° ENE
Cosmos 2219 4.5 09:51:46 10° N 09:57:08 41° ENE 10:02:25 10° SE
Cosmos 2297 Rocket 4.3 09:55:24 10° N 10:00:11 27° ENE 10:04:57 10° ESE
Cosmos 1812 4.4 10:05:33 20° NNW 10:05:33 20° NNW 10:07:08 10° NNW
Dummy Sat-01 4.5 10:01:48 10° N 10:05:33 85° W 10:07:25 28° S
Cosmos 1417 Rocket 4.4 09:59:41 10° NNW 10:06:01 71° W 10:12:20 10° S
COSMOS 2441 4.5 10:04:52 10° NNE 10:09:47 78° ESE 10:14:40 10° S
H-2A R/B 2.3 10:15:20 10° N 10:19:04 53° WNW 10:20:15 37° SW
OAO 3 Rocket 3.5 10:17:42 33° SW 10:19:29 52° SSE 10:24:00 10° E
Cosmos 1680 Rocket 3.5 10:14:51 10° SSW 10:20:06 85° ESE 10:25:22 10° NNE
SeaSat 1 2.4 10:16:14 10° NNE 10:21:10 71° WNW 10:24:37 20° SW
Cosmos 2084 Rocket 4.5 10:22:33 27° SW 10:22:33 27° SW 10:25:18 10° S
Cosmos 923 Rocket 4.0 10:18:08 18° SSW 10:22:07 70° WNW 10:27:27 10° NNE
IDEFIX/ARIANE 42P 2.9 10:17:07 10° N 10:22:08 46° WNW 10:25:12 22° SW
Timation 2 Rocket 4.4 10:17:57 10° NW 10:23:12 33° WSW 10:28:26 10° SSW
SL-4 R/B 3.5 10:25:26 17° SSW 10:25:26 17° SSW 10:26:54 10° S
Cosmos 1340 4.0 10:21:25 10° NNW 10:23:17 23° NW 10:23:17 23° NW
Cosmos 1782 Rocket 3.5 10:21:07 10° N 10:25:32 88° W 10:29:56 10° S
Cosmos 1666 2.5 10:22:53 10° NNW 10:26:39 69° W 10:30:25 10° S
Cosmos 2292 Rocket 4.1 10:22:30 10° S 10:27:33 61° E 10:31:22 10° NNE
CZ-4B R/B 3.3 10:25:26 10° NNE 10:29:57 77° E 10:34:21 10° S
TSX-5 3.7 10:30:39 36° W 10:31:11 40° WNW 10:34:11 10° N
S3M 4.1 10:26:56 10° NNW 10:32:58 54° W 10:39:03 10° SSW
Cosmos 1655 Rocket 4.3 10:28:05 12° SSW 10:33:33 42° WNW 10:39:28 10° N
Cosmos 1703 Rocket 4.1 10:32:13 22° SW 10:34:28 36° WNW 10:38:34 10° N
Abrixas rocket 1.9 10:33:26 35° SW 10:34:34 89° SE 10:37:36 10° NE
OAO 2 Rocket 3.3 10:31:54 25° WSW 10:34:40 66° S 10:39:32 10° E
ASTRO E2 4.0 10:33:46 21° SW 10:35:00 25° SSW 10:38:19 10° SE
Cosmos 1656 3.7 10:34:13 10° SSW 10:39:54 86° ESE 10:45:37 10° NNE
Okean 1-7 3.7 10:41:26 13° SW 10:44:50 34° WNW 10:48:50 10° NNW
BREEZE-M DEB (TANK) 4.1 10:40:01 10° WNW 10:47:47 32° N 10:50:49 10° ENE
MSX 4.3 10:46:23 10° N 10:51:43 41° WNW 10:57:01 10° SW
Meteor 1-31 Rocket 2.9 10:49:30 10° N 10:53:16 51° WNW 10:57:01 10° SSW
PAYLOAD A 4.3 10:51:57 10° N 10:56:18 38° WNW 11:00:36 10° SW
Sich 1 Rocket 3.8 10:52:15 10° NNW 10:56:34 48° W 11:00:53 10° SSW
Atlas Centaur 2 4.3 10:53:16 10° SW 10:56:39 15° SSW 11:00:33 10° S
Cosmos 2221 Rocket 3.6 10:53:01 10° SSW 10:57:20 57° W 11:01:42 10° N
Cosmos 2278 4.4 10:52:57 10° S 10:58:28 58° ESE 11:04:00 10° NNE
CZ-4B R/B 4.0 10:55:54 10° N 10:59:21 42° WNW 11:02:49 10° SW
PSLV R/B 3.7 10:55:32 10° N 10:59:30 80° WNW 11:03:21 10° SSW
Gbstr 26 Del rocket 4.5 10:54:03 10° NW 11:02:06 67° SW 11:09:19 10° SE
Cosmos 2266 Rocket 4.4 10:57:05 10° SW 11:02:39 37° WNW 11:08:13 10° N
ATLAS CENTAUR R/B 2.6 10:59:37 10° NNW 11:03:53 46° NE 11:07:47 10° SE
Okean 1 4.0 11:02:56 10° SW 11:06:31 33° WNW 11:10:08 10° NNW
BREEZE-M DEB (TANK) 3.3 11:00:18 10° WNW 11:07:36 61° SW 11:10:31 10° SE
Cosmos 1515 3.6 11:09:17 10° S 11:13:04 83° W 11:16:55 10° N
COSMO-SKYMED 1 2.7 11:09:46 10° SSE 11:14:06 81° ENE 11:18:27 10° N
Iridium 2 3.6 11:10:39 10° N 11:14:27 67° W 11:18:13 10° S
BREEZE-M DEB (TANK) 2.2 11:11:40 10° WSW 11:15:37 69° NW 11:17:53 10° NE
Meteor 2-8 Rocket 4.5 11:12:42 10° NNW 11:18:47 64° W 11:24:51 10° S
Lacrosse 5 2.9 11:15:02 10° WNW 11:19:09 25° WSW 11:23:15 10° S
CZ-4B R/B 3.7 11:13:51 10° NNE 11:19:19 66° ESE 11:24:37 10° S
Cosmos 1484 Rocket 2.6 11:15:39 10° N 11:19:20 64° WNW 11:23:00 10° SSW
Cosmos 1975 3.0 11:16:08 10° NNW 11:20:05 50° W 11:24:01 10° SSW
Cosmos 2082 4.0 11:14:32 10° NNW 11:20:13 74° ENE 11:25:49 10° SSE
USA 215 3.4 11:17:29 10° NE 11:23:55 62° NW 11:30:20 10° WSW
CZ-3 R/B 4.3 11:17:01 10° W 11:39:58 29° SW 11:48:03 10° S
